Stockton Lake Weather Center

Moon Phase Calendar



Stockton Lake Water Level
Online Cameras

 


      

Current Conditions in Stockton
4/21/2021 5:07:45 AM

31°F
Feels Like 24
Clear
Humidity
85%
Pressure
30.27"
Wind
7.7 mph (WSW)
Dew Point
28°F
UV Index
0/10 (Low)
Visibility
6 mi

Hourly Forecast

Date & Time Wed, Apr 21
5:00 AM
Wed, Apr 21
6:00 AM
Wed, Apr 21
7:00 AM
Wed, Apr 21
8:00 AM
Wed, Apr 21
9:00 AM
Wed, Apr 21
10:00 AM
Wed, Apr 21
11:00 AM
Wed, Apr 21
12:00 PM
Wed, Apr 21
1:00 PM
Wed, Apr 21
2:00 PM
Wed, Apr 21
3:00 PM
Wed, Apr 21
4:00 PM
Wed, Apr 21
5:00 PM
Wed, Apr 21
6:00 PM
Wed, Apr 21
7:00 PM
Wed, Apr 21
8:00 PM
Wed, Apr 21
9:00 PM
Wed, Apr 21
10:00 PM
Wed, Apr 21
11:00 PM
Thu, Apr 22
12:00 AM
Thu, Apr 22
1:00 AM
Thu, Apr 22
2:00 AM
Thu, Apr 22
3:00 AM
Thu, Apr 22
4:00 AM
Thu, Apr 22
5:00 AM
Thu, Apr 22
6:00 AM
Thu, Apr 22
7:00 AM
Thu, Apr 22
8:00 AM
Thu, Apr 22
9:00 AM
Thu, Apr 22
10:00 AM
Thu, Apr 22
11:00 AM
Thu, Apr 22
12:00 PM
Thu, Apr 22
1:00 PM
Thu, Apr 22
2:00 PM
Thu, Apr 22
3:00 PM
Thu, Apr 22
4:00 PM
Thu, Apr 22
5:00 PM
Thu, Apr 22
6:00 PM
Thu, Apr 22
7:00 PM
Thu, Apr 22
8:00 PM
Thu, Apr 22
9:00 PM
Thu, Apr 22
10:00 PM
Thu, Apr 22
11:00 PM
Fri, Apr 23
12:00 AM
Fri, Apr 23
1:00 AM
Fri, Apr 23
2:00 AM
Fri, Apr 23
3:00 AM
Fri, Apr 23
4:00 AM
Condition
Clear

Clear

Clouds

Clouds

Clouds

Clouds

Clouds

Clouds

Clouds

Clouds

Clouds

Clouds

Clouds

Clouds

Clouds

Clouds

Clouds

Clouds

Clouds

Clouds

Clouds

Clouds

Clouds

Clouds

Clouds

Clouds

Clouds

Clouds

Clouds

Clouds

Clouds

Clouds

Clouds

Clouds

Clouds

Clouds

Rain

Rain

Rain

Clouds

Rain

Rain

Rain

Rain

Clouds

Clouds

Clouds

Clouds
Temperature 31°F31°F31°F33°F37°F43°F46°F48°F49°F50°F50°F50°F49°F48°F45°F40°F38°F37°F35°F34°F33°F34°F33°F33°F32°F32°F33°F38°F42°F46°F48°F49°F49°F51°F51°F52°F48°F46°F43°F43°F42°F43°F43°F43°F44°F44°F45°F46°F
Feels Like 24°F23°F23°F25°F29°F35°F39°F41°F43°F47°F47°F47°F43°F43°F40°F35°F33°F32°F31°F31°F30°F30°F30°F28°F27°F26°F27°F34°F39°F43°F45°F47°F47°F48°F48°F49°F45°F43°F38°F38°F36°F36°F36°F36°F37°F38°F39°F39°F
Cloudiness 2%5%14%58%56%48%36%30%38%100%100%100%100%100%94%99%96%97%97%98%94%100%100%100%89%88%88%96%97%98%99%99%99%100%100%100%100%100%100%100%100%100%100%100%100%100%100%100%
Visibility 6 mi6 mi6 mi6 mi6 mi6 mi6 mi6 mi6 mi6 mi6 mi6 mi6 mi6 mi6 mi6 mi6 mi6 mi6 mi6 mi6 mi6 mi6 mi6 mi6 mi6 mi6 mi6 mi6 mi6 mi6 mi6 mi6 mi6 mi6 mi6 mi6 mi6 mi6 mi6 mi6 mi6 mi6 mi6 mi6 mi6 mi6 mi6 mi
Precipitation 0%0%0%0%0%0%0%0%0%0%0%0%0%0%0%0%0%0%0%0%0%0%0%0%0%0%0%0%0%0%0%0%0%0%0%0%31%51%70%53%100%100%100%100%80%1%1%0%
Humidity 85%86%87%83%74%66%54%48%46%45%44%44%45%54%60%65%67%68%70%73%73%70%69%68%70%70%68%63%57%53%49%47%49%49%52%52%73%80%87%88%94%92%93%93%92%92%90%88%
Dew Point 28°F28°F28°F29°F30°F32°F30°F29°F29°F30°F30°F29°F29°F33°F32°F29°F28°F27°F27°F26°F26°F25°F24°F24°F23°F23°F23°F26°F28°F30°F30°F30°F31°F33°F34°F35°F40°F40°F40°F39°F40°F41°F41°F41°F42°F42°F42°F42°F
Pressure 30.27"30.27"30.3"30.3"30.33"30.3"30.3"30.3"30.27"30.27"30.27"30.24"30.24"30.21"30.24"30.24"30.27"30.3"30.3"30.3"30.3"30.3"30.27"30.3"30.3"30.3"30.3"30.3"30.3"30.3"30.3"30.27"30.24"30.21"30.18"30.15"30.12"30.12"30.09"30.12"30.12"30.12"30.09"30.09"30.06"30.03"30"30"
Wind Speed 7.7 mph8.4 mph8.1 mph9.3 mph12.8 mph14.2 mph15 mph15.9 mph16.4 mph16.8 mph17.5 mph17.8 mph17 mph13.7 mph11 mph7.8 mph7 mph6.5 mph5.3 mph3.8 mph3.3 mph3.6 mph4 mph5 mph5.2 mph5.7 mph6.3 mph5 mph5.9 mph6 mph6.6 mph6.7 mph6.7 mph8 mph6.8 mph6.8 mph6.5 mph7.2 mph10.7 mph7.3 mph10.1 mph12.6 mph12.8 mph14.2 mph14 mph13 mph12.9 mph14.2 mph
Wind
Direction
241°
WSW
238°
WSW
238°
WSW
252°
WSW
268°
W
288°
WNW
306°
NW
310°
NW
307°
NW
300°
WNW
305°
NW
308°
NW
311°
NW
317°
NW
325°
NW
330°
NNW
334°
NNW
346°
NNW
11°
N
39°
NE
87°
E
121°
ESE
142°
SE
167°
SSE
161°
SSE
161°
SSE
167°
SSE
167°
SSE
173°
S
170°
S
163°
SSE
173°
S
167°
SSE
145°
SE
152°
SSE
160°
SSE
130°
SE
82°
E
73°
ENE
84°
E
91°
E
113°
ESE
110°
ESE
127°
SE
136°
SE
140°
SE
146°
SE
148°
SSE

Daily Forecast

Date High Low Precip. Humidity
Today
Apr 21

Clouds
50 °F
30 °F
0%
46%
Thursday
Apr 22

Rain
52 °F
32 °F
100%
49%
Friday
Apr 23

Rain
56 °F
44 °F
100%
91%
Saturday
Apr 24

Rain
57 °F
48 °F
100%
84%
Sunday
Apr 25

Clear
68 °F
44 °F
0%
60%
Monday
Apr 26

Clouds
77 °F
53 °F
0%
66%
Tuesday
Apr 27

Rain
75 °F
61 °F
100%
65%
Wednesday
Apr 28

Rain
61 °F
54 °F
100%
91%
Thursday
Apr 29

Clear
65 °F
48 °F
35%
57%
Friday
Apr 30

Clouds
71 °F
48 °F
0%
54%
Saturday
May 1

Clouds
75 °F
55 °F
0%
64%
Sunday
May 2

Rain
76 °F
59 °F
99%
74%
Monday
May 3

Rain
78 °F
59 °F
100%
63%
Tuesday
May 4

Rain
60 °F
50 °F
100%
92%
Wednesday
May 5

Clear
68 °F
45 °F
0%
57%
Thursday
May 6

Rain
73 °F
56 °F
20%
66%

Temperature 8-14 Day Outlook



Precipitation 8-14 Day Outlook




Quick Links
Stockton Lake News
Stockton Lake Photos
Stockton Lake Videos




About Us
Contact Us
Site Map
Search Site
Advertise With Us
   
Stockton.USLakes.info
THE STOCKTON LAKE WEBSITE

Copyright 2021, Lakes Online
Privacy    |    Legal